Orbital Elements at Epoch 2459000.5 (2020-May-31.0) TDB
Reference: JPL 24 (heliocentric ecliptic J2000)
Element | Value | Uncertainty (1-sigma) | Units |
e | .01899198666412913 | 3.9871e-08 | |
a | 2.655178980500163 | 1.1379e-08 | au |
q | 2.604751856711628 | 1.0842e-07 | au |
i | 1.000127071944433 | 4.2586e-06 | deg |
node | 162.6744397313611 | 0.00021188 | deg |
peri | 229.0176424249854 | 0.00023475 | deg |
M | 13.72814726049192 | 9.978e-05 | deg |
tp | 2458940.237303958339 (2020-Mar-31.73730396) | 0.00043802 | TDB |
period | 1580.298503748767 4.33 | 1.0159e-05 2.781e-08 | d yr |
n | .2278050628700919 | 1.4644e-09 | deg/d |
Q | 2.705606104288698 | 1.1595e-08 | au |
|
| | Orbit Determination Parameters
Additional Information
|